STARLINK-32727, 62828

Orbit data source: Space-Track

STARLINK-32727, 62828 is a payload satellite owned by SpaceX/Seattle (US) in LEO that was launched on Fri, 24 Jan 2025 UTC via an FALCON 9 launch vehicle from the Air Force Western Test Range (AFWTR). Payload-class satellites include a variety of spacecraft equipped with specific instruments for various scientific and technological missions. These include communications satellites like Starlink; space stations such as the ISS; scientific satellites like the Hubble; Earth observation satellites from companies like Planet Labs, Umbra, and HawkEye 360; GPS; miniature CubeSats for education and research; and military/defense satellites.

Loading next visibility...
Identifier
62828, 2025-018Y
Orbit
LEO
Country
Flag of USUS
Related business
Manufacturer
SpaceX/Seattle
Mission
Operational Commercial Communications
Bus & Motor
STARLINK V2M, Unknown motor
Mass
730 kg wet, ~700 kg dry
Launch date (UTC)
2025-01-24 (8 months ago)
Launch vehicle
FALCON 9
Launch site
Air Force Western Test Range (AFWTR)
Object type
Payload
Rocket body
Debris
Shape & HBR
Box + 2 Pan, 14.5 m
Radar Cross Section
33.884 m², Large (>1 m²)

Expand to show TLE details & history
Last TLE update: 1 day ago

TLE from 1 day ago
0 STARLINK-32727
1 62828U 25018Y   25259.66119782  .00028896  00000-0  98518-3 0  9992
2 62828  53.1602  35.1145 0000702  71.7295 288.3782 15.30159381 37514
Epoch: 2025-09-16T15:52Z
TLE epoch observation values (Epoch: 2025-09-16T15:52:07.491Z)
Latitude
-0.00004°
Longitude
161.23496°
Altitude
476.084 km
Speed
7.629 km/s
True Right ascension
02h 20m 27s
True Declination
0° 00' 00"
Sunlit
Object was in full shadow at epoch
Visualization orbit readout
Latitude
Unknown
Longitude
Unknown
Altitude
Unknown
Speed
Unknown
Apparent Right ascension
Unknown
Apparent Declination
Unknown
Sunlit
N/A
Visualization observer readout
Local Sidereal Time
18:32:25
Azimuth
Unknown
Elevation
Unknown
Doppler factor
Unknown
Orbital elements
Apogee altitude
476.074 km
Perigee altitude
475.112 km
Semi-major axis
6,853.73 km
Eccentricity
0.00007
Inclination
53.1602°
RAAN
35.1145°
Arg. of periapsis
71.7295°
True anomaly
288.37057°
Mean anomaly
288.3782°
Eccentric anomaly
288.37438°
Mean motion
3.82519 °/min
Orbital period
94.11 mins
BSTAR
0.00098518
Loading maneuver chart data...
Computing Atmospheric mass density...
Loading historical data...
Loading historical data...
Loading historical data...
Loading historical data...
Loading historical data...
Loading historical data...
Loading historical data...

Documentation

Showing up to 5 results
|